map of DWC home
DWC - Airport
Location
City:  Dubai, Dubai, United Arab Emirates
Near (Alt.):Jebel Ali
Name:Al Maktoum International Airport
Old (Alt.):Dubai World Central International Airport
ICAO:OMDW
IATA:DWC

Details
Type:Airport (Aerodrome, Airfield)
Use:International (customs port of entry)
Latitude:2453'10"N (24.886111)
Longitude:5510'20"E (55.172222)
Variation:1.99E (WMM2015 magnetic declination)
0.05 annual change
Runways:1
Longest:14764 ft (4500 m)

Time
Time Zone:UTC+4
Local Time:

Weather
METAR:OMDW 211300Z 33014KT 6000 NSC 40/15 Q0998 NOSIG
TAF:OMDW 211101Z 2112/2218 33015KT 6000 NSC PROB30
TEMPO 2112/2114 4000 DU
BECMG 2115/2117 09008KT
BECMG 2208/2210 33012KT
BECMG 2215/2217 06005KT

Related Locations
Nearby:
Farthest:GMR: 11799 mi / 18989 km
Mangareva [Totegegie], Gambier Islands, PF

Find:

   beyond  
but within

Other Information
Maps:
NOTAMs:
Links:
Sources:

  
flag of United Arab Emirates
flag of Dubai
  

Sectional Chart

Flight Planning
at skyvector.com

Satellite Image

Google Maps Satellite view

 

Copyright © 2004-2017 Karl L. Swartz. All rights reserved.
The Great Circle Mapper name and logo are trademarks of the Great Circle Mapper.
All other trademarks mentioned herein belong to their respective owners.
Please see credits for attibutions and further copyright information.

  Follow gcmap on Facebook Follow gcmap on Twitter Follow gcmap on Google+ GCmap on LinkedIn

hCard Microformat

Geo Microformat